NOAA 16 DEB

Satellite information

Favourite Embed

Satellite Type and Status

DEBRISIN ORBIT

Key statistics

Satellite NOAA 16 DEB at a glance.

Uptime

9109

Days in orbit

Revolutions

≈ 14.3

Per day

Orbit

SSO

Sun Synchronous Orbit

Inclination

98.8

Latest

Satellite identification and parameters

Extended collection of information and parameters for NOAA 16 DEB.

Object identification

Identified? True

Debris? True

Object name: NOAA 16 DEB

International designator: 2000-055KQ

Object number (NORAD): 41411

Object ID (CCSDS): 41411

Country: UNITED STATES OF AMERICA (US)

Current information (Y/N): Y

RCS size: SMALL

Orbital parameters

Period: 100.349 minutes

Inclination: 98.8258 deg

SMA: 7153.253 km

Apoapsis: 785.085 km

Periapsis: 765.15 km

RAAN: 357.1886 deg

Eccentricy: 0.00139341

Argument of periapsis: 307.8812 deg

Mean anomaly: 52.1111 deg

Mean motion: 14.34985124 rev/day

Mean motion (dot): 0.0000666 rev/day2

B* drag term: 0.0023510518 1/REarth

Two-line elements (TLE)

Creation date: Aug. 30, 2025, 3:38 a.m.

Reference frame: TEME

Reference center: EARTH

Epoch: Aug. 29, 2025, 12:53 p.m. UTC

TLE line 0: 0 NOAA 16 DEB

TLE line 1: 1 41411U 00055KQ 25241.53710601 .00006660 00000-0 23511-2 0 9990

TLE line 2: 2 41411 98.8258 357.1886 0013934 307.8812 52.1111 14.34985124494841

Live tracking on map

Real-time ground track for satellite NOAA 16 DEB.

In-orbit conjunctions

A list of the most updated potential collisions computed for object NOAA 16 DEB.

Target Orbit TCA Probability of collision Miss distance Type
CZ-6A DEB SSO 2025-08-16 05:42:42 0.0004329347 163.0 (m) DEBRIS
CZ-6A DEB LEO 2025-03-02 08:47:01 0.0001341005 437.0 (m) DEBRIS
CZ-6A DEB LEO 2025-01-28 03:43:52 0.001951871 81.0 (m) DEBRIS
DMSP 5D-2 F11 DEB SSO 2024-06-02 07:13:07 0.0001314294 51.0 (m) DEBRIS

Associated space launch

The NOAA K, L and M POES satellites begin the fifth generation of improved environmental monitoring in support of NOAA missions. The instrument payload has significant improvements and additions/deletions. The instrument changes have effected the spacecraft subsystems and data formats.

NOAA 16 DEB was lifted into orbit during the mission ‘Titan II SLV | NOAA 16’, on board a Titan II SLV space rocket.

The launch took place on Sept. 21, 2000, 10:22 a.m. from Space Launch Complex 4W.

For more information about the launch, click the button.

Launch to space Titan II SLV | NOAA 16
Titan II SLV | NOAA 16

Agency: N/A

Status: Launch Successful

Launch date: Sept. 21, 2000, 10:22 a.m. UTC

Rocket: Titan II SLV

Launch pad: Space Launch Complex 4W

Location: Vandenberg SFB, CA, USA

...

Latest news about this satellite

There are no fresh news available about this satellite. Check back as we update our databases every day.


Newsletter sign-up

Weekly statistics, charts and insights to help you stay on top of the space industry.